Vertical_Velocity
-2 -2 -3 1 -2 -1 -0 3 -2 -12 -9 22 -11 2 6 6 9 2 -1 0 5 1 1 -3 -8 6 5 6 3 -2 -1 6 -4 -1 1 2 1 -0
-7 -4 -2 1 -2 -2 -1 1 3 -3 -39 14 8 5 8 -4 5 3 -0 3 -1 7 5 4 -3 -2 1 6 5 2 -1 -2 -7 -0 -2 1 1 1
-1 -5 -2 0 -3 -1 -1 -1 -1 3 -23 -0 -10 7 7 0 1 -1 1 -6 -2 -8 0 12 1 -3 2 2 2 4 5 6 -1 -3 -2 1 0 3
-2 -4 -5 0 -2 -1 -1 -2 -4 3 -6 -0 -8 0 -8 5 5 -7 14 -5 4 13 19 9 6 -0 -0 7 -2 -3 3 -1 3 0 -2 2 -2 -0
-4 -4 -0 -2 -4 0 2 -4 -3 -1 -3 -1 -12 -0 0 1 4 3 -0 -1 2 16 6 1 5 11 -7 6 2 -2 4 1 17 -0 2 -2 2 -2
-4 -4 -1 -2 -7 1 -0 -1 -1 -4 -2 -3 3 -19 -3 15 -3 4 -0 16 1 -5 -11 9 6 10 -4 -2 3 1 3 1 1 5 -0 1 1 0
-1 -3 -1 -0 -0 0 -3 -1 0 -3 -2 -5 1 -1 -13 1 -1 6 -8 16 -16 4 2 20 32 -1 -4 4 3 -4 -2 5 6 2 -5 0 -3 -1
-4 -0 -2 0 1 0 1 -1 1 -5 -6 -3 -0 2 -11 -7 4 -4 -2 -2 -20 35 2 1 -7 -11 -1 -2 7 1 -6 -2 1 2 -2 9 0 -8
-1 -0 -1 0 -0 -3 1 -1 -3 1 -2 2 -6 2 -1 -17 -9 12 1 -4 -12 30 1 -24 16 5 7 19 3 4 -0 2 -0 1 -3 -3 3 -3
-1 -1 -3 2 5 -2 -2 -5 -1 0 -7 5 -1 -6 1 -5 -9 -3 5 -7 -9 15 10 -47 40 -15 5 -8 -2 6 2 4 1 3 5 -3 -2 2
1 1 -1 -2 3 5 -0 -2 -2 -13 7 0 -3 3 1 5 -6 -4 -8 -8 -10 9 3 -20 26 -9 26 -6 3 -5 1 3 2 4 4 2 2 3
3 -1 3 0 3 4 -2 -1 -12 2 -3 -1 -4 -3 3 6 1 -7 3 -23 -5 -7 19 -28 27 27 -2 11 4 -2 3 11 3 1 3 3 6 3
-2 -4 0 -0 -2 3 4 -1 -4 5 1 -5 -7 -4 1 -0 0 -4 -5 -9 -1 -34 26 -5 14 12 -8 -4 2 29 2 1 0 10 5 0 -2 2
-2 -1 -2 -0 -0 2 2 -1 6 9 5 -0 -6 -10 -5 -2 -1 4 -4 -2 -6 -24 23 -5 -7 -6 11 -2 -11 22 33 2 14 2 -4 10 1 -1
2 1 -2 -3 -1 -2 5 3 1 -0 -0 -6 -5 -9 3 6 4 9 -12 2 -12 -6 5 -8 -6 12 2 -8 -2 11 13 53 5 4 12 -1 3 -3
5 2 -2 1 -1 -3 -3 2 1 1 -2 -4 -4 -0 2 1 -1 9 -7 -0 -10 -4 5 -7 4 8 -2 -13 11 1 17 -7 36 2 27 -1 11 5
-2 -5 -1 -0 -6 -2 -1 -2 -2 -1 -3 4 -3 -1 -2 5 -6 12 -4 -2 -16 -7 1 -6 3 1 -4 13 -10 -2 19 1 -4 16 12 -2 -4 -4
-3 -3 -3 -2 -1 -2 -3 -2 1 -1 0 -2 -4 -1 -5 -3 -3 8 3 -2 -18 -4 -4 0 1 3 4 -6 -16 -10 2 -10 4 9 26 19 3 0
0 0 -2 2 -2 -2 -2 -1 -4 1 0 -2 -4 -2 -3 -7 -1 0 1 -1 -24 -7 -7 5 -4 0 2 -40 12 -4 1 8 14 5 7 15 -0 -12
5 -1 0 1 0 -2 -1 -2 -2 -3 1 1 1 2 1 -2 -3 -3 3 -3 -10 -0 -4 8 -2 -7 -9 -37 7 -13 -6 37 19 12 -4 24 -12 12
0 3 6 -1 -2 0 1 -1 0 -1 1 -2 0 2 -2 -0 -2 1 -0 -4 2 -0 -10 -6 -17 6 -13 45 6 -9 -3 2 -8 3 4 26 8 6
-2 -5 -1 1 1 2 1 2 -1 0 2 1 -1 -3 -1 3 2 3 -1 -4 -2 1 -8 7 10 3 4 6 -14 0 -17 -2 5 7 18 18 4 -1
-1 -2 -0 1 2 1 2 2 3 1 -2 -1 -9 0 3 -2 5 2 -3 -2 1 -2 3 -2 3 5 -2 -6 12 11 3 13 -2 -14 11 4 8 9
Height
2996 2994 2993 2994 2993 2992 2993 2992 2989 2994 3003 3017 3021 3022 3026 3033 3037 3040 3043 3049 3056 3060 3064 3070 3074 3076 3080 3085 3089 3094 3099 3103 3107 3110 3112 3114 3118 3120
2984 2981 2981 2980 2979 2979 2979 2978 2976 2973 2974 2995 3001 3006 3008 3012 3018 3023 3028 3033 3037 3043 3048 3054 3060 3063 3067 3072 3077 3081 3087 3092 3097 3099 3103 3105 3109 3112
2974 2969 2968 2966 2965 2965 2964 2963 2962 2961 2955 2968 2979 2987 2990 2997 3002 3006 3013 3018 3023 3028 3034 3038 3043 3049 3053 3058 3064 3069 3074 3080 3085 3090 3093 3096 3099 3103
2962 2957 2956 2953 2951 2951 2950 2949 2948 2947 2943 2939 2960 2966 2970 2979 2984 2988 2997 3001 3006 3012 3018 3024 3028 3034 3038 3043 3049 3056 3061 3068 3074 3079 3083 3086 3089 3094
2949 2946 2943 2939 2938 2937 2936 2934 2934 2933 2932 2927 2929 2947 2953 2960 2965 2971 2978 2982 2989 2993 3001 3007 3013 3018 3024 3028 3034 3041 3047 3054 3061 3067 3072 3076 3080 3084
2936 2933 2930 2926 2925 2923 2921 2921 2920 2918 2918 2915 2913 2921 2933 2943 2947 2952 2959 2965 2972 2978 2986 2991 2997 3003 3008 3013 3018 3025 3032 3040 3047 3054 3060 3064 3070 3074
2923 2920 2917 2915 2913 2910 2908 2907 2906 2904 2904 2903 2900 2900 2913 2922 2928 2933 2939 2946 2955 2963 2967 2969 2981 2987 2990 2995 3002 3009 3017 3025 3033 3039 3046 3052 3058 3063
2910 2907 2904 2902 2900 2898 2896 2894 2893 2891 2890 2890 2889 2887 2891 2905 2910 2913 2919 2925 2933 2944 2940 2950 2957 2962 2971 2979 2986 2992 3002 3010 3019 3025 3033 3038 3045 3051
2899 2895 2892 2890 2887 2885 2883 2881 2880 2879 2878 2877 2874 2875 2876 2883 2895 2897 2898 2905 2914 2922 2923 2931 2943 2949 2953 2963 2972 2979 2986 2995 3003 3010 3017 3025 3031 3037
2888 2884 2880 2878 2876 2873 2870 2868 2867 2866 2866 2865 2862 2863 2864 2868 2874 2879 2883 2884 2893 2903 2907 2911 2930 2931 2939 2945 2954 2963 2971 2979 2987 2995 3002 3009 3016 3023
2877 2873 2870 2866 2865 2863 2860 2856 2854 2852 2854 2852 2850 2851 2852 2854 2858 2862 2864 2866 2871 2885 2894 2897 2914 2919 2921 2928 2937 2947 2954 2963 2972 2979 2986 2993 3001 3010
2866 2862 2860 2856 2854 2852 2849 2846 2841 2840 2839 2838 2837 2836 2838 2839 2842 2845 2849 2849 2854 2862 2881 2886 2897 2906 2905 2912 2922 2930 2939 2946 2956 2963 2969 2976 2986 2993
2853 2851 2849 2846 2843 2841 2839 2835 2830 2830 2828 2826 2823 2822 2822 2823 2825 2829 2834 2836 2838 2843 2862 2870 2877 2885 2887 2896 2904 2915 2924 2932 2938 2946 2953 2959 2967 2975
2844 2840 2837 2834 2831 2828 2825 2823 2821 2819 2815 2812 2809 2807 2808 2809 2811 2813 2819 2821 2824 2828 2841 2848 2855 2864 2871 2879 2888 2896 2905 2917 2922 2931 2937 2945 2951 2958
2835 2830 2826 2823 2819 2816 2813 2810 2806 2803 2800 2797 2794 2794 2795 2796 2796 2796 2799 2803 2807 2812 2817 2827 2836 2844 2851 2859 2868 2879 2885 2895 2905 2912 2920 2928 2936 2942
2825 2820 2816 2812 2808 2803 2799 2796 2792 2789 2786 2782 2780 2780 2780 2780 2779 2781 2782 2787 2788 2792 2799 2807 2817 2823 2832 2843 2849 2858 2868 2872 2888 2896 2904 2913 2920 2927
2814 2808 2804 2800 2794 2790 2785 2781 2778 2774 2771 2769 2765 2763 2763 2762 2762 2764 2762 2766 2767 2773 2779 2788 2798 2803 2812 2823 2828 2837 2852 2858 2863 2879 2889 2895 2902 2910
2804 2799 2794 2789 2783 2777 2772 2767 2764 2760 2757 2753 2750 2748 2746 2744 2743 2743 2743 2743 2747 2753 2760 2769 2779 2785 2790 2800 2812 2825 2837 2843 2851 2859 2873 2880 2887 2893
2795 2790 2785 2778 2772 2766 2760 2754 2749 2746 2741 2737 2734 2730 2728 2726 2723 2721 2721 2722 2724 2730 2739 2750 2759 2765 2769 2776 2802 2811 2820 2827 2836 2844 2854 2863 2871 2881
2787 2781 2775 2769 2762 2755 2748 2741 2736 2732 2728 2723 2719 2716 2712 2707 2703 2700 2700 2701 2703 2709 2717 2726 2733 2743 2750 2765 2788 2797 2804 2810 2819 2831 2840 2849 2860 2867
2778 2772 2766 2759 2751 2743 2737 2730 2724 2718 2712 2707 2702 2696 2692 2687 2681 2680 2680 2681 2684 2686 2690 2701 2713 2731 2744 2755 2754 2766 2777 2791 2806 2818 2827 2838 2845 2852
2769 2763 2757 2749 2741 2734 2726 2718 2710 2702 2695 2688 2680 2675 2670 2665 2659 2658 2659 2659 2662 2666 2671 2684 2698 2709 2720 2725 2739 2754 2765 2781 2797 2805 2813 2821 2830 2838
2760 2754 2747 2740 2732 2723 2714 2704 2693 2683 2674 2666 2657 2652 2647 2640 2637 2635 2636 2637 2641 2647 2654 2662 2675 2686 2698 2709 2726 2741 2755 2767 2778 2788 2798 2808 2818 2828